Weather History for Tulsa Jones, OK

Change the Weather History Date:

Sunday, July 7, 2013

  Actual Average (KTUL) Record (KTUL)
Temperature  
Mean Temperature 84 °F 82 °F  
Max Temperature 96 °F 92 °F 104 °F (2011)
Min Temperature 72 °F 72 °F 58 °F (1967)
Cooling Degree Days 19 17  
Month to date cooling degree days 118  
Year to date cooling degree days 731  
Since 1 June cooling degree days 497  
Growing Degree Days 34 (Base 50)    
Moisture  
Dew Point 66 °F    
Average Humidity 56    
Maximum Humidity 84    
Minimum Humidity 36    
Precipitation  
Precipitation 0.00 in 0.12 in 1.35 in (1994)
Month to date precipitation 0.86  
Year to date precipitation 22.08  
Sea Level Pressure  
Sea Level Pressure 29.99 in    
Wind  
Wind Speed 5 mph (South)    
Max Wind Speed 13 mph    
Max Gust Speed 20 mph    
Visibility 10 miles    
Events      
T = Trace of Precipitation, MM = Missing Value Source: NWS Daily Summary

Daily Weather History Graph

Daily Weather History Graph

Search for Another Location

Airport:

Trip Planner

Search our weather history database for the weather conditions in past years. The results will help you decide how hot, cold, wet, or windy it might be!

Date:

Astronomy

Jul. 07, 2013 Rise Set
Actual Time 6:13 AM CDT 8:43 PM CDT
Civil Twilight 5:43 AM CDT 9:13 PM CDT
Nautical Twilight 5:06 AM CDT 9:50 PM CDT
Astronomical Twilight 4:26 AM CDT 10:31 PM CDT
Moon 5:48 AM CDT (7/7) 8:10 PM CDT (7/7)
Length of Visible Light 15h 29m
Length of Day
14h 29m
Waning Crescent, 0% of the Moon is Illuminated
Jul 7
Waning Crescent
Jul 8
New
Jul 15
First Quarter
Jul 22
Full
Jul 29
Last Quarter

Hourly Weather History & Observations

Time (CDT) Temp. Heat Index Dew Point Humidity Pressure Visibility Wind Dir Wind Speed Gust Speed Precip Events Conditions
12:53 AM 72.0 °F - 66.0 °F 81% 29.98 in 10.0 mi Calm Calm - N/A   Clear
1:53 AM 72.0 °F - 66.9 °F 84% 29.97 in 10.0 mi Calm Calm - N/A   Clear
2:53 AM 79.0 °F - 62.1 °F 56% 29.96 in 10.0 mi South 5.8 mph - N/A   Clear
3:53 AM 75.9 °F - 63.0 °F 64% 29.96 in 10.0 mi SSW 3.5 mph - N/A   Clear
4:53 AM 78.1 °F - 63.0 °F 60% 29.96 in 10.0 mi South 3.5 mph - N/A   Clear
5:53 AM 75.0 °F - 64.0 °F 69% 29.97 in 10.0 mi SSE 4.6 mph - N/A   Clear
6:53 AM 75.0 °F - 64.0 °F 69% 30.00 in 10.0 mi South 4.6 mph - N/A   Clear
7:53 AM 75.0 °F - 64.9 °F 71% 30.02 in 10.0 mi Calm Calm - N/A   Clear
8:53 AM 78.1 °F - 66.0 °F 66% 30.03 in 10.0 mi South 4.6 mph - N/A   Clear
9:53 AM 82.9 °F 85.4 °F 66.9 °F 58% 30.04 in 10.0 mi South 11.5 mph - N/A   Clear
10:53 AM 87.1 °F 90.6 °F 68.0 °F 53% 30.03 in 10.0 mi South 9.2 mph - N/A   Clear
11:53 AM 91.0 °F 95.2 °F 68.0 °F 47% 30.02 in 10.0 mi South 12.7 mph 19.6 mph N/A   Clear
12:53 PM 93.0 °F 97.4 °F 68.0 °F 44% 30.01 in 10.0 mi SSW 10.4 mph - N/A   Clear
1:53 PM 93.9 °F 96.1 °F 64.9 °F 38% 30.00 in 10.0 mi South 10.4 mph 17.3 mph N/A   Clear
2:53 PM 95.0 °F 97.4 °F 64.9 °F 37% 29.99 in 10.0 mi South 9.2 mph - N/A   Clear
3:53 PM 96.1 °F 98.8 °F 64.9 °F 36% 29.97 in 10.0 mi South 11.5 mph 17.3 mph N/A   Clear
4:53 PM 95.0 °F 97.9 °F 66.0 °F 38% 29.96 in 10.0 mi South 11.5 mph 19.6 mph N/A   Clear
5:53 PM 95.0 °F 97.4 °F 64.9 °F 37% 29.95 in 10.0 mi SSE 10.4 mph - N/A   Clear
6:53 PM 93.0 °F 94.6 °F 64.0 °F 38% 29.95 in 10.0 mi SSE 8.1 mph - N/A   Clear
7:53 PM 91.0 °F 93.0 °F 64.9 °F 42% 29.96 in 10.0 mi South 8.1 mph - N/A   Clear
8:53 PM 89.1 °F 91.0 °F 64.9 °F 45% 29.97 in 10.0 mi South 6.9 mph - N/A   Clear
9:53 PM 80.1 °F 82.3 °F 66.9 °F 64% 30.00 in 10.0 mi Calm Calm - N/A   Clear
10:53 PM 78.1 °F - 68.0 °F 71% 30.01 in 10.0 mi Calm Calm - N/A   Clear
11:53 PM 75.0 °F - 68.0 °F 79% 30.01 in 10.0 mi Calm Calm - N/A   Clear